Theta_e
302 302 302 301 300 302 302 303 299 301 302 306 308 310 312 314 315 317 317 318 319 320 321 322 321 320 319 318 319 320 317 318 318 317 314 314 313 313 312 311 311 311 310 310
298 301 300 298 300 300 300 301 301 302 302 309 310 311 310 311 313 315 316 317 319 320 320 320 319 318 317 317 316 316 315 314 314 312 311 311 311 310 310 309 309 309 309 309
293 299 298 294 298 300 301 302 301 298 303 308 308 309 310 310 311 313 315 316 318 319 320 320 318 317 315 314 314 313 313 311 309 310 309 309 308 308 308 309 309 309 309 309
294 295 286 298 305 303 301 303 305 305 306 308 309 311 311 312 312 313 315 317 319 320 319 319 317 315 314 312 311 311 309 308 308 307 306 306 307 307 308 307 307 306 307 306
289 289 294 297 300 300 299 299 305 304 306 308 309 309 310 313 315 315 317 319 320 319 318 315 313 313 311 310 310 307 306 306 305 305 305 305 304 305 304 302 302 302 304 305
290 285 283 296 302 305 305 295 306 306 306 307 307 301 306 314 317 318 319 318 316 315 313 312 310 310 310 309 306 305 304 304 305 305 305 304 304 300 299 299 300 302 302 303
287 287 292 300 303 305 293 297 308 308 308 307 306 309 313 315 315 315 314 312 312 312 309 308 308 308 306 305 304 304 304 304 304 304 304 304 303 301 299 298 298 298 299 301
290 286 284 304 301 296 304 308 309 309 309 309 311 311 311 312 311 310 309 309 309 307 307 307 306 306 304 302 304 303 303 302 301 300 300 300 299 299 299 298 297 297 297 298
289 291 300 302 301 307 308 307 308 309 310 311 309 309 308 308 308 307 306 306 306 306 305 305 304 304 302 303 302 301 300 297 296 297 297 298 298 298 297 297 296 295 295 295
290 294 294 300 304 306 307 307 309 309 309 311 308 308 306 306 305 305 305 304 305 304 302 301 302 302 301 301 300 297 297 296 296 295 295 296 296 296 296 295 295 294 294 294
290 294 297 300 301 304 304 306 306 308 309 309 308 306 305 304 304 303 303 303 303 301 300 300 300 300 300 299 299 297 296 295 294 295 294 295 296 296 296 298 296 295 296 296
288 295 295 296 303 304 304 304 307 308 306 307 305 304 304 303 303 302 301 300 300 300 300 299 299 299 299 298 297 295 294 294 295 294 294 294 294 295 295 293 293 292 291 292
296 299 299 301 299 302 303 305 304 304 305 304 304 304 303 302 301 299 298 298 298 298 299 299 299 299 299 299 298 295 294 294 295 294 294 294 294 294 292 295 293 292 291 291
300 301 297 298 296 299 300 301 302 302 302 302 301 302 302 300 299 298 297 298 299 299 298 298 298 298 300 300 298 295 295 294 294 294 294 294 293 292 292 291 291 293 294 293
297 301 298 298 299 299 301 301 300 300 300 299 300 298 299 298 297 297 299 299 299 298 298 298 298 298 300 299 296 296 295 295 295 295 293 293 292 293 292 293 293 292 293 293
297 299 298 297 297 299 300 300 298 297 297 296 296 297 298 298 298 298 299 299 297 296 297 298 298 299 298 297 298 297 296 293 292 293 292 292 293 293 292 291 291 291 291 291
295 295 296 296 297 297 296 297 296 296 296 296 297 298 298 298 297 297 298 299 299 298 299 297 297 299 299 299 297 295 295 295 289 293 293 293 293 291 291 290 290 290 290 291
301 300 300 298 296 295 295 296 297 297 297 297 298 298 297 297 296 297 298 299 299 298 299 299 298 296 298 297 296 295 294 294 293 292 292 291 291 290 290 290 289 289 289 290
299 298 298 297 297 297 297 297 297 298 299 298 298 297 298 297 297 298 299 298 297 296 297 299 293 296 296 295 293 293 293 292 292 291 291 289 290 289 288 288 289 289 289 288
301 301 300 300 300 299 298 299 299 299 299 299 298 298 297 298 299 299 299 297 298 297 297 297 297 296 294 294 290 293 293 291 290 289 289 288 287 287 287 287 289 289 289 289
304 303 302 302 301 301 302 302 301 300 300 300 299 297 293 299 300 300 298 296 298 296 296 295 295 293 292 291 290 293 292 290 289 288 286 286 286 286 287 287 287 287 287 287
306 306 305 306 306 304 305 304 303 301 301 300 300 300 299 300 300 299 299 297 298 286 295 296 294 287 289 285 295 293 292 290 288 287 286 286 285 286 285 286 285 285 286 287
308 308 308 307 308 308 308 307 306 305 304 304 299 292 294 297 300 295 295 298 296 291 296 295 287 285 284 295 294 294 292 290 288 287 286 286 285 285 285 284 285 285 285 286
305 308 309 310 309 309 306 307 307 307 307 305 304 293 296 301 300 302 301 292 287 289 294 292 289 285 284 294 294 293 293 291 289 288 287 285 285 285 285 284 284 284 285 285
309 309 310 310 309 308 307 307 306 306 305 304 304 303 302 303 300 300 298 297 288 292 295 288 286 286 295 294 293 293 293 294 291 288 287 286 285 285 284 284 284 284 284 284
308 308 309 310 310 305 304 304 301 302 303 302 302 302 301 301 300 299 298 293 297 291 295 295 294 294 293 293 293 293 293 293 292 290 287 286 285 285 285 284 283 283 284 284
308 301 309 308 304 301 302 306 303 302 301 302 300 300 300 300 297 296 292 297 296 295 295 296 296 293 293 293 293 293 293 292 290 291 290 287 286 285 285 284 284 284 284 284
Wind_Speed
22 23 22 16 18 16 20 21 23 20 22 15 7 11 12 14 13 14 17 18 17 15 12 10 10 9 7 5 6 5 5 3 1 3 5 6 7 9 10 11 11 12 12 12
23 19 18 21 23 24 25 23 23 22 24 14 11 10 12 10 12 16 18 18 16 15 13 12 10 8 7 7 6 5 4 1 3 5 7 7 9 9 10 11 11 11 11 11
25 18 20 26 24 28 28 27 25 25 21 16 17 12 12 12 14 16 16 15 14 14 12 11 9 7 8 7 6 4 1 3 5 7 8 9 10 10 10 11 11 13 12 11
16 13 22 11 12 9 15 16 21 22 18 16 11 9 4 4 9 8 9 12 13 12 10 9 9 8 7 6 4 1 4 6 7 8 9 9 10 11 11 11 12 12 12 12
14 15 20 18 6 8 10 14 14 17 14 15 8 4 7 3 1 2 6 8 10 11 11 10 9 7 6 3 2 5 7 8 8 9 10 10 10 11 12 11 11 11 12 12
11 13 18 13 11 10 11 16 12 6 8 7 7 10 3 10 10 11 13 13 14 14 12 10 8 6 2 2 5 7 8 9 9 10 11 11 10 9 8 10 11 10 12 12
18 16 10 11 4 9 16 2 8 8 10 8 9 8 14 14 17 15 16 17 15 13 11 9 7 4 4 5 6 8 9 10 11 11 11 12 11 9 9 10 10 11 12 11
17 21 23 10 6 14 10 11 9 7 4 3 13 14 16 17 18 18 17 15 13 11 9 7 6 4 5 6 7 8 10 12 12 12 10 11 11 11 11 10 11 11 11 10
6 2 15 12 10 11 11 11 10 10 3 11 14 16 18 17 17 15 14 11 10 9 8 6 6 6 6 7 8 9 10 10 11 12 11 12 12 13 10 10 9 10 9 9
11 7 10 11 8 10 12 12 11 5 3 12 17 18 19 17 14 13 11 9 8 7 7 6 5 6 6 7 9 9 11 11 11 11 12 11 9 9 9 9 9 9 9 9
10 11 12 6 13 14 10 7 4 6 9 14 17 18 17 16 14 11 10 8 7 7 5 6 6 7 7 7 9 10 10 11 11 10 11 11 10 9 10 11 9 11 11 11
5 3 5 11 16 13 6 2 7 15 18 14 16 17 17 14 12 11 9 9 7 6 5 6 6 7 7 7 8 9 10 10 9 10 10 10 9 9 11 12 13 15 17 15
7 8 5 5 13 15 7 13 16 18 18 17 16 15 15 14 12 10 9 7 7 6 7 6 7 7 7 7 8 11 11 12 10 11 10 11 11 11 11 10 13 15 17 18
13 13 0 14 7 10 18 18 20 19 17 15 15 14 14 12 10 10 8 7 6 6 6 6 7 7 9 10 11 12 12 12 10 9 9 10 10 9 9 10 12 13 12 13
12 12 18 11 8 12 13 14 17 15 14 14 14 13 11 11 10 8 8 7 6 4 4 6 8 10 11 12 12 14 13 11 11 11 11 11 11 11 11 12 11 11 11 10
10 13 14 13 9 10 14 14 14 14 14 12 12 12 11 9 9 9 8 7 7 6 7 9 10 12 12 13 14 13 12 14 11 11 10 11 10 9 10 10 11 10 10 10
13 13 12 12 12 13 14 13 12 12 12 12 12 10 9 9 9 9 9 9 8 7 8 10 11 13 15 13 14 11 11 11 10 11 10 10 10 10 10 10 10 10 10 10
16 15 15 13 12 12 12 12 12 12 12 11 9 10 10 10 10 10 9 8 9 9 10 11 12 14 12 13 13 11 9 9 9 9 10 10 10 10 11 11 11 11 12 12
15 16 15 14 13 12 11 11 11 11 10 10 11 11 10 10 9 7 7 9 10 10 11 12 14 12 13 13 12 10 9 10 10 9 10 11 10 9 10 10 10 11 11 10
12 11 10 12 13 12 11 10 10 11 10 9 8 8 8 7 7 7 8 8 9 9 12 12 12 12 14 14 14 8 10 12 11 11 10 10 9 11 10 11 11 12 12 11
7 8 7 7 8 8 8 8 9 8 7 6 6 6 3 5 6 7 9 8 10 12 11 7 10 10 10 11 10 9 10 9 10 10 10 10 11 10 11 11 12 11 11 11
8 6 4 5 6 6 5 5 5 5 5 3 1 2 4 6 8 7 6 8 7 6 10 8 9 12 10 13 8 9 10 10 10 9 9 10 10 11 11 11 11 11 11 12
10 9 6 5 5 5 5 4 4 2 1 1 3 3 1 3 4 4 6 8 8 9 8 9 8 10 12 9 10 10 12 12 11 10 10 10 10 10 11 11 11 10 10 11
7 9 7 6 5 2 6 6 5 4 3 3 6 5 2 2 2 1 3 3 5 9 7 7 8 9 11 9 10 12 12 11 11 11 11 14 10 10 10 11 11 10 10 11
6 6 6 6 5 7 9 6 5 6 6 6 7 6 5 4 4 4 5 6 3 8 9 6 4 8 10 10 11 12 12 11 12 11 12 12 12 12 11 11 11 11 10 10
10 6 6 7 7 8 6 5 2 5 5 6 5 4 4 3 3 4 5 5 8 7 8 9 9 10 10 11 11 12 12 13 13 13 13 12 12 12 12 12 12 11 11 10
9 9 7 8 8 5 1 1 5 4 6 6 5 4 4 4 4 4 4 7 8 8 8 9 9 9 10 10 11 12 12 12 13 13 13 12 12 12 12 12 12 11 10 11
Wind_Direction
254 265 273 269 256 217 231 244 250 259 261 273 215 217 214 212 212 201 202 207 206 207 213 198 191 201 208 191 174 190 202 202 199 310 320 317 315 315 314 311 310 310 310 308
259 256 259 255 253 258 258 254 249 260 256 263 271 227 254 225 215 211 214 211 208 204 203 187 177 189 160 155 158 169 180 229 303 312 314 313 310 309 307 307 310 310 306 304
254 256 259 254 249 248 252 249 251 251 259 254 253 227 241 248 242 219 223 214 203 196 192 183 175 160 161 148 151 156 236 302 316 316 313 312 311 309 309 309 307 305 302 302
262 257 240 256 267 289 286 264 251 252 256 265 264 237 286 293 277 229 218 202 188 181 175 159 145 147 138 144 137 309 312 317 317 317 314 314 314 313 314 313 311 307 306 303
249 238 256 259 170 243 241 255 249 260 253 243 230 234 179 120 155 150 161 155 154 134 137 139 140 133 129 119 348 320 326 326 328 323 313 315 313 324 328 315 308 300 296 299
233 228 242 270 259 348 281 262 266 243 244 242 174 234 156 120 112 112 107 105 114 123 136 125 118 113 96 5 332 334 339 329 323 318 313 310 315 319 304 300 298 302 307 299
232 244 257 276 82 326 219 295 355 331 287 243 230 40 105 113 108 109 111 117 124 124 112 104 94 70 26 351 344 346 330 326 319 319 322 304 309 309 304 299 293 293 292 295
232 228 237 52 288 236 15 322 347 353 346 116 100 115 111 112 113 115 116 118 112 107 98 83 58 17 6 352 355 339 333 329 331 326 316 308 308 300 301 295 291 287 287 289
336 318 342 4 341 331 329 321 324 341 41 121 130 122 118 112 110 107 103 99 97 99 94 76 52 24 348 12 338 336 332 328 315 315 306 303 306 303 299 300 299 298 295 293
325 24 338 308 340 345 329 316 316 325 175 147 132 128 120 116 114 108 101 95 91 91 78 76 47 18 11 340 340 319 313 318 317 312 307 301 298 293 297 297 295 292 298 295
284 300 324 51 352 331 309 302 264 126 126 126 133 128 120 112 104 97 91 78 62 56 52 55 23 0 349 335 322 316 316 314 311 306 305 303 295 293 291 288 300 304 298 296
307 199 310 323 322 303 273 161 144 120 118 121 108 109 108 99 94 87 74 58 44 51 37 21 356 337 345 336 324 316 313 308 315 306 310 303 298 289 267 242 270 269 261 258
308 314 308 60 21 358 103 114 103 96 101 103 100 99 102 98 90 90 86 76 49 30 31 357 352 347 352 333 323 321 313 311 308 308 305 302 301 303 301 296 279 265 266 264
316 269 121 51 51 56 74 75 76 82 86 86 87 84 85 88 86 72 62 55 48 29 11 9 346 341 343 332 329 320 311 304 301 297 300 305 310 298 291 290 291 294 282 268
14 97 97 98 73 81 82 85 84 85 86 79 72 76 79 79 77 75 64 45 42 4 20 348 341 341 343 335 325 313 311 312 316 309 309 296 289 287 283 283 285 287 293 281
79 76 83 74 86 83 92 96 89 82 78 80 84 79 83 87 80 67 56 39 22 19 359 348 344 343 337 322 321 321 325 315 307 310 303 295 293 293 291 289 289 287 286 287
70 83 81 74 76 76 76 76 86 88 91 88 84 85 89 87 81 67 52 38 30 15 360 355 343 345 332 328 331 326 317 314 308 297 303 304 302 292 294 295 289 288 288 293
69 70 71 76 80 87 88 85 80 81 81 86 93 90 82 72 64 52 38 26 21 12 17 352 4 333 327 336 342 324 313 308 307 306 305 302 303 303 296 296 294 293 295 293
62 73 72 73 79 84 89 91 94 96 101 93 83 78 73 64 55 46 20 27 16 2 356 352 340 328 344 347 343 323 313 313 311 312 311 309 308 304 299 295 296 296 293 292
73 71 71 78 83 89 93 94 99 91 85 87 85 75 69 57 34 22 14 33 22 15 337 357 341 349 342 340 343 320 326 328 324 322 318 315 308 307 307 305 306 310 310 308
66 88 92 97 107 102 94 96 96 96 98 85 70 53 30 357 11 17 15 11 9 8 326 342 6 355 335 341 319 329 331 324 324 324 320 316 314 314 313 313 315 314 314 311
358 38 55 99 99 116 118 118 108 131 132 123 42 49 337 0 15 25 46 17 350 24 322 8 5 351 328 315 343 337 334 329 328 325 322 322 319 318 318 319 318 317 314 313
7 28 30 58 75 88 138 158 147 155 145 312 103 137 227 309 7 9 0 6 355 358 330 12 355 330 321 337 347 347 342 338 333 330 327 324 321 320 319 320 319 317 316 316
295 332 9 20 69 94 86 78 77 68 51 54 88 131 131 40 91 16 11 97 29 327 340 21 349 325 312 354 351 350 347 344 336 332 330 331 326 325 324 324 324 321 319 317
358 333 339 4 72 94 84 83 89 99 87 81 95 104 100 57 58 12 12 6 53 340 350 31 314 333 356 357 352 351 349 346 342 335 334 332 331 331 329 329 328 326 324 325
18 18 35 45 81 79 71 76 87 43 81 84 85 85 76 69 60 22 25 19 4 350 3 4 5 359 359 357 351 354 353 348 346 343 337 336 335 334 333 334 332 334 333 333
49 26 73 82 68 66 336 74 94 70 59 70 83 75 62 58 80 18 14 15 9 4 5 7 2 7 356 358 358 358 355 353 348 345 341 339 338 336 336 335 334 333 335 337